Time,TemperatureF,DewpointF,PressureIn,WindDirection,WindDirectionDegrees,WindSpeedMPH,WindSpeedGustMPH,Humidity,HourlyPrecipIn,Conditions,Clouds,dailyrainin,SoftwareType,DateUTC
2013-05-27 00:02:00,40.8,21.6,31.78,SW,225,2.0,3.0,46,0.00,,,0.00,meteohub,2013-05-27 06:02:00,
2013-05-27 00:07:00,40.8,21.6,31.78,SW,225,2.0,3.0,46,0.00,,,0.00,meteohub,2013-05-27 06:07:00,
2013-05-27 00:12:00,40.6,21.6,31.78,SW,225,0.0,3.0,46,0.00,,,0.00,meteohub,2013-05-27 06:12:00,
2013-05-27 00:17:00,40.5,21.4,31.78,South,180,0.0,2.0,46,0.00,,,0.00,meteohub,2013-05-27 06:17:00,
2013-05-27 00:22:00,40.3,21.2,31.78,West,270,0.0,2.0,46,0.00,,,0.00,meteohub,2013-05-27 06:22:00,
2013-05-27 00:27:00,40.1,21.0,31.78,West,270,0.0,2.0,46,0.00,,,0.00,meteohub,2013-05-27 06:27:00,
2013-05-27 00:33:00,39.7,21.2,31.78,South,180,0.0,2.0,47,0.00,,,0.00,meteohub,2013-05-27 06:33:00,
2013-05-27 00:38:00,39.6,20.5,31.78,North,0,0.0,2.0,46,0.00,,,0.00,meteohub,2013-05-27 06:38:00,
2013-05-27 00:43:00,39.6,20.5,31.78,SE,135,0.0,0.0,46,0.00,,,0.00,meteohub,2013-05-27 06:43:00,
2013-05-27 00:49:00,39.2,20.7,31.78,South,180,0.0,0.0,47,0.00,,,0.00,meteohub,2013-05-27 06:49:00,
2013-05-27 00:54:00,39.0,21.0,31.78,SW,225,0.0,0.0,48,0.00,,,0.00,meteohub,2013-05-27 06:54:00,
2013-05-27 01:00:00,38.8,21.4,31.78,South,180,0.0,0.0,49,0.00,,,0.00,meteohub,2013-05-27 07:00:00,
2013-05-27 01:05:00,38.5,21.4,31.78,SW,225,0.0,0.0,50,0.00,,,0.00,meteohub,2013-05-27 07:05:00,
2013-05-27 01:11:00,38.1,21.2,31.77,NW,315,2.0,0.0,50,0.00,,,0.00,meteohub,2013-05-27 07:11:00,
2013-05-27 01:16:00,37.6,21.0,31.77,NE,45,3.0,3.0,51,0.00,,,0.00,meteohub,2013-05-27 07:16:00,
2013-05-27 01:22:00,37.4,20.8,31.78,West,270,4.0,4.0,51,0.00,,,0.00,meteohub,2013-05-27 07:22:00,
2013-05-27 01:27:00,37.0,18.7,31.78,West,270,4.0,4.0,47,0.00,,,0.00,meteohub,2013-05-27 07:27:00,
2013-05-27 01:32:00,36.7,18.9,31.77,South,180,2.0,4.0,48,0.00,,,0.00,meteohub,2013-05-27 07:32:00,
2013-05-27 01:37:00,36.3,19.0,31.78,West,270,0.0,4.0,49,0.00,,,0.00,meteohub,2013-05-27 07:37:00,
2013-05-27 01:42:00,35.6,18.9,31.77,West,270,2.0,4.0,50,0.00,,,0.00,meteohub,2013-05-27 07:42:00,
2013-05-27 01:47:00,35.2,19.4,31.77,SW,225,2.0,4.0,52,0.00,,,0.00,meteohub,2013-05-27 07:47:00,
2013-05-27 01:52:00,34.9,19.0,31.77,NW,315,0.0,4.0,52,0.00,,,0.00,meteohub,2013-05-27 07:52:00,
2013-05-27 01:57:00,34.9,19.0,31.77,South,180,2.0,2.0,52,0.00,,,0.00,meteohub,2013-05-27 07:57:00,
2013-05-27 02:02:00,34.7,18.9,31.76,South,180,0.0,2.0,52,0.00,,,0.00,meteohub,2013-05-27 08:02:00,
2013-05-27 02:07:00,34.5,19.2,31.77,South,180,0.0,2.0,53,0.00,,,0.00,meteohub,2013-05-27 08:07:00,
2013-05-27 02:13:00,34.5,19.2,31.76,South,180,0.0,2.0,53,0.00,,,0.00,meteohub,2013-05-27 08:13:00,
2013-05-27 02:19:00,34.5,19.2,31.77,South,180,0.0,2.0,53,0.00,,,0.00,meteohub,2013-05-27 08:19:00,
2013-05-27 02:24:00,34.3,19.0,31.76,West,270,0.0,2.0,53,0.00,,,0.00,meteohub,2013-05-27 08:24:00,
2013-05-27 02:30:00,34.2,18.9,31.76,South,180,0.0,2.0,53,0.00,,,0.00,meteohub,2013-05-27 08:30:00,
2013-05-27 02:35:00,34.0,18.7,31.76,South,180,1.0,2.0,53,0.00,,,0.00,meteohub,2013-05-27 08:35:00,
2013-05-27 02:41:00,33.8,18.5,31.75,NW,315,3.0,3.0,53,0.00,,,0.00,meteohub,2013-05-27 08:41:00,
2013-05-27 02:46:00,33.8,18.5,31.75,SW,225,3.0,3.0,53,0.00,,,0.00,meteohub,2013-05-27 08:46:00,
2013-05-27 02:52:00,33.4,18.5,31.75,NW,315,2.0,3.0,54,0.00,,,0.00,meteohub,2013-05-27 08:52:00,
2013-05-27 02:57:00,33.1,18.3,31.75,South,180,0.0,3.0,54,0.00,,,0.00,meteohub,2013-05-27 08:57:00,
2013-05-27 03:02:00,32.9,18.5,31.75,SE,135,2.0,4.0,55,0.00,,,0.00,meteohub,2013-05-27 09:02:00,
2013-05-27 03:07:00,32.5,18.1,31.75,East,90,2.0,4.0,55,0.00,,,0.00,meteohub,2013-05-27 09:07:00,
2013-05-27 03:13:00,32.4,18.0,31.75,NW,315,2.0,4.0,55,0.00,,,0.00,meteohub,2013-05-27 09:13:00,
2013-05-27 03:18:00,32.5,18.5,31.75,NW,315,2.0,3.0,56,0.00,,,0.00,meteohub,2013-05-27 09:18:00,
2013-05-27 03:24:00,32.4,18.0,31.75,SW,225,0.0,3.0,55,0.00,,,0.00,meteohub,2013-05-27 09:24:00,
2013-05-27 03:29:00,32.0,18.1,31.75,South,180,2.0,3.0,56,0.00,,,0.00,meteohub,2013-05-27 09:29:00,
2013-05-27 03:34:00,32.0,18.1,31.75,West,270,0.0,3.0,56,0.00,,,0.00,meteohub,2013-05-27 09:34:00,
2013-05-27 03:40:00,31.8,18.3,31.75,West,270,2.0,3.0,57,0.00,,,0.00,meteohub,2013-05-27 09:40:00,
2013-05-27 03:45:00,31.8,18.3,31.75,South,180,2.0,3.0,57,0.00,,,0.00,meteohub,2013-05-27 09:45:00,
2013-05-27 03:51:00,31.6,18.1,31.75,West,270,2.0,3.0,57,0.00,,,0.00,meteohub,2013-05-27 09:51:00,
2013-05-27 03:56:00,31.8,18.3,31.74,North,0,0.0,2.0,57,0.00,,,0.00,meteohub,2013-05-27 09:56:00,
2013-05-27 04:02:00,32.2,18.3,31.74,NE,45,0.0,2.0,56,0.00,,,0.00,meteohub,2013-05-27 10:02:00,
2013-05-27 04:07:00,32.2,18.3,31.75,NE,45,0.0,2.0,56,0.00,,,0.00,meteohub,2013-05-27 10:07:00,
2013-05-27 04:13:00,31.6,17.8,31.74,West,270,0.0,1.0,56,0.00,,,0.00,meteohub,2013-05-27 10:13:00,
2013-05-27 04:18:00,31.6,17.8,31.74,North,0,0.0,1.0,56,0.00,,,0.00,meteohub,2013-05-27 10:18:00,
2013-05-27 04:23:00,31.6,18.1,31.74,East,90,2.0,2.0,57,0.00,,,0.00,meteohub,2013-05-27 10:23:00,
2013-05-27 04:29:00,31.3,18.1,31.75,SW,225,0.0,3.0,58,0.00,,,0.00,meteohub,2013-05-27 10:29:00,
2013-05-27 04:35:00,31.1,17.6,31.75,West,270,2.0,4.0,57,0.00,,,0.00,meteohub,2013-05-27 10:35:00,
2013-05-27 04:40:00,31.3,18.1,31.75,South,180,2.0,4.0,58,0.00,,,0.00,meteohub,2013-05-27 10:40:00,
2013-05-27 04:46:00,31.3,17.8,31.74,NW,315,0.0,3.0,57,0.00,,,0.00,meteohub,2013-05-27 10:46:00,
2013-05-27 04:51:00,31.8,18.3,31.75,SW,225,2.0,2.0,57,0.00,,,0.00,meteohub,2013-05-27 10:51:00,
2013-05-27 04:57:00,31.6,18.1,31.74,North,0,1.0,2.0,57,0.00,,,0.00,meteohub,2013-05-27 10:57:00,
2013-05-27 05:02:00,31.3,17.8,31.75,NW,315,0.0,3.0,57,0.00,,,0.00,meteohub,2013-05-27 11:02:00,
2013-05-27 05:07:00,31.1,17.6,31.74,SW,225,0.0,3.0,57,0.00,,,0.00,meteohub,2013-05-27 11:07:00,
2013-05-27 05:13:00,30.7,17.2,31.75,North,0,2.0,2.0,57,0.00,,,0.00,meteohub,2013-05-27 11:13:00,
2013-05-27 05:18:00,30.7,17.2,31.75,SW,225,0.0,2.0,57,0.00,,,0.00,meteohub,2013-05-27 11:18:00,
2013-05-27 05:24:00,30.6,17.1,31.75,SW,225,2.0,2.0,57,0.00,,,0.00,meteohub,2013-05-27 11:24:00,
2013-05-27 05:29:00,30.4,17.1,31.74,SW,225,1.0,2.0,57,0.00,,,0.00,meteohub,2013-05-27 11:29:00,
2013-05-27 05:34:00,30.4,17.1,31.74,SW,225,4.0,4.0,57,0.00,,,0.00,meteohub,2013-05-27 11:34:00,
2013-05-27 05:39:00,30.2,17.2,31.74,SW,225,2.0,4.0,58,0.00,,,0.00,meteohub,2013-05-27 11:39:00,
2013-05-27 05:45:00,29.8,17.2,31.74,SW,225,2.0,4.0,59,0.00,,,0.00,meteohub,2013-05-27 11:45:00,
2013-05-27 05:51:00,29.7,17.1,31.74,SW,225,0.0,2.0,59,0.00,,,0.00,meteohub,2013-05-27 11:51:00,
2013-05-27 05:56:00,29.8,17.2,31.74,West,270,2.0,2.0,59,0.00,,,0.00,meteohub,2013-05-27 11:56:00,
2013-05-27 06:01:00,30.0,17.4,31.74,SW,225,2.0,2.0,59,0.00,,,0.00,meteohub,2013-05-27 12:01:00,
2013-05-27 06:07:00,30.0,17.4,31.74,SW,225,2.0,2.0,59,0.00,,,0.00,meteohub,2013-05-27 12:07:00,
2013-05-27 06:12:00,30.4,17.4,31.74,West,270,1.0,2.0,58,0.00,,,0.00,meteohub,2013-05-27 12:12:00,
2013-05-27 06:17:00,30.4,17.1,31.74,West,270,0.0,2.0,57,0.00,,,0.00,meteohub,2013-05-27 12:17:00,
2013-05-27 06:22:00,30.4,17.4,31.74,SW,225,0.0,2.0,58,0.00,,,0.00,meteohub,2013-05-27 12:22:00,
2013-05-27 06:27:00,30.6,17.6,31.74,East,90,0.0,2.0,58,0.00,,,0.00,meteohub,2013-05-27 12:27:00,
2013-05-27 06:33:00,31.1,18.9,31.74,NW,315,0.0,2.0,60,0.00,,,0.00,meteohub,2013-05-27 12:33:00,
2013-05-27 06:39:00,32.0,18.9,31.74,SW,225,0.0,2.0,58,0.00,,,0.00,meteohub,2013-05-27 12:39:00,
2013-05-27 06:44:00,32.7,19.2,31.74,SW,225,0.0,2.0,57,0.00,,,0.00,meteohub,2013-05-27 12:44:00,
2013-05-27 06:50:00,34.0,19.0,31.74,NE,45,2.0,2.0,54,0.00,,,0.00,meteohub,2013-05-27 12:50:00,
2013-05-27 06:55:00,35.6,20.1,31.74,NE,45,0.0,2.0,53,0.00,,,0.00,meteohub,2013-05-27 12:55:00,
2013-05-27 07:01:00,37.6,23.4,31.75,SE,135,0.0,2.0,56,0.00,,,0.00,meteohub,2013-05-27 13:01:00,
2013-05-27 07:07:00,38.7,23.9,31.74,NE,45,0.0,2.0,55,0.00,,,0.00,meteohub,2013-05-27 13:07:00,
2013-05-27 07:12:00,39.4,23.7,31.75,NE,45,2.0,2.0,53,0.00,,,0.00,meteohub,2013-05-27 13:12:00,
2013-05-27 07:17:00,40.3,24.4,31.74,NE,45,0.0,3.0,53,0.00,,,0.00,meteohub,2013-05-27 13:17:00,
2013-05-27 07:22:00,41.4,24.1,31.75,NE,45,2.0,3.0,50,0.00,,,0.00,meteohub,2013-05-27 13:22:00,
2013-05-27 07:27:00,42.3,23.9,31.75,NE,45,2.0,2.0,48,0.00,,,0.00,meteohub,2013-05-27 13:27:00,
2013-05-27 07:32:00,43.2,23.2,31.74,NE,45,4.0,4.0,45,0.00,,,0.00,meteohub,2013-05-27 13:32:00,
2013-05-27 07:37:00,43.5,23.0,31.74,NE,45,3.0,4.0,44,0.00,,,0.00,meteohub,2013-05-27 13:37:00,
2013-05-27 07:42:00,44.1,23.0,31.75,East,90,0.0,4.0,43,0.00,,,0.00,meteohub,2013-05-27 13:42:00,
2013-05-27 07:47:00,45.1,22.8,31.75,East,90,4.0,4.0,41,0.00,,,0.00,meteohub,2013-05-27 13:47:00,
2013-05-27 07:52:00,45.7,23.4,31.75,NE,45,2.0,4.0,41,0.00,,,0.00,meteohub,2013-05-27 13:52:00,
2013-05-27 07:57:00,46.8,23.2,31.75,NE,45,2.0,4.0,39,0.00,,,0.00,meteohub,2013-05-27 13:57:00,
2013-05-27 08:03:00,47.5,23.7,31.74,North,0,2.0,4.0,39,0.00,,,0.00,meteohub,2013-05-27 14:03:00,
2013-05-27 08:09:00,49.1,23.4,31.74,ENE,68,2.0,3.0,36,0.00,,,0.00,meteohub,2013-05-27 14:09:00,
2013-05-27 08:14:00,49.8,22.6,31.74,East,90,2.0,3.0,34,0.00,,,0.00,meteohub,2013-05-27 14:14:00,
2013-05-27 08:20:00,50.9,21.4,31.74,SE,135,2.0,4.0,31,0.00,,,0.00,meteohub,2013-05-27 14:20:00,
2013-05-27 08:25:00,52.0,20.7,31.74,NE,45,1.0,4.0,29,0.00,,,0.00,meteohub,2013-05-27 14:25:00,
2013-05-27 08:30:00,53.2,20.1,31.74,East,90,3.0,3.0,27,0.00,,,0.00,meteohub,2013-05-27 14:30:00,
2013-05-27 08:36:00,53.8,17.8,31.73,NE,45,1.0,4.0,24,0.00,,,0.00,meteohub,2013-05-27 14:36:00,
2013-05-27 08:41:00,55.0,18.9,31.74,NE,45,2.0,4.0,24,0.00,,,0.00,meteohub,2013-05-27 14:41:00,
2013-05-27 08:47:00,55.9,20.7,31.73,East,90,3.0,4.0,25,0.00,,,0.00,meteohub,2013-05-27 14:47:00,
2013-05-27 08:52:00,56.7,21.2,31.73,NE,45,4.0,4.0,25,0.00,,,0.00,meteohub,2013-05-27 14:52:00,
2013-05-27 08:57:00,57.0,21.6,31.74,NE,45,2.0,4.0,25,0.00,,,0.00,meteohub,2013-05-27 14:57:00,
2013-05-27 09:02:00,57.9,21.4,31.73,NE,45,2.0,4.0,24,0.00,,,0.00,meteohub,2013-05-27 15:02:00,
2013-05-27 09:07:00,58.1,20.5,31.73,East,90,4.0,4.0,23,0.00,,,0.00,meteohub,2013-05-27 15:07:00,
2013-05-27 09:12:00,58.1,20.5,31.73,East,90,2.0,4.0,23,0.00,,,0.00,meteohub,2013-05-27 15:12:00,
2013-05-27 09:17:00,58.5,20.8,31.73,NE,45,4.0,4.0,23,0.00,,,0.00,meteohub,2013-05-27 15:17:00,
2013-05-27 09:22:00,58.8,20.1,31.73,NE,45,6.0,8.0,22,0.00,,,0.00,meteohub,2013-05-27 15:22:00,
2013-05-27 09:27:00,59.0,19.0,31.73,East,90,1.0,8.0,21,0.00,,,0.00,meteohub,2013-05-27 15:27:00,
2013-05-27 09:32:00,59.9,19.9,31.73,West,270,2.0,8.0,21,0.00,,,0.00,meteohub,2013-05-27 15:32:00,
2013-05-27 09:37:00,61.0,19.6,31.73,North,0,6.0,8.0,20,0.00,,,0.00,meteohub,2013-05-27 15:37:00,
2013-05-27 09:42:00,61.5,20.1,31.72,SW,225,9.0,9.0,20,0.00,,,0.00,meteohub,2013-05-27 15:42:00,
2013-05-27 09:47:00,61.9,20.3,31.72,NW,315,5.0,9.0,20,0.00,,,0.00,meteohub,2013-05-27 15:47:00,
2013-05-27 09:52:00,61.9,19.2,31.72,West,270,8.0,9.0,19,0.00,,,0.00,meteohub,2013-05-27 15:52:00,
2013-05-27 09:57:00,61.5,20.1,31.72,North,0,5.0,9.0,20,0.00,,,0.00,meteohub,2013-05-27 15:57:00,
2013-05-27 10:02:00,61.7,19.0,31.72,NW,315,4.0,9.0,19,0.00,,,0.00,meteohub,2013-05-27 16:02:00,
2013-05-27 10:07:00,61.7,19.0,31.73,NW,315,4.0,8.0,19,0.00,,,0.00,meteohub,2013-05-27 16:07:00,
2013-05-27 10:12:00,61.3,18.7,31.72,West,270,9.0,9.0,19,0.00,,,0.00,meteohub,2013-05-27 16:12:00,
2013-05-27 10:17:00,61.2,18.5,31.72,NW,315,7.0,13.0,19,0.00,,,0.00,meteohub,2013-05-27 16:17:00,
2013-05-27 10:22:00,61.5,18.9,31.72,West,270,11.0,13.0,19,0.00,,,0.00,meteohub,2013-05-27 16:22:00,
2013-05-27 10:28:00,61.9,19.2,31.72,SW,225,5.0,11.0,19,0.00,,,0.00,meteohub,2013-05-27 16:28:00,
2013-05-27 10:33:00,61.9,19.2,31.72,West,270,14.0,14.0,19,0.00,,,0.00,meteohub,2013-05-27 16:33:00,
2013-05-27 10:38:00,61.5,18.9,31.72,South,180,7.0,11.0,19,0.00,,,0.00,meteohub,2013-05-27 16:38:00,
2013-05-27 10:44:00,61.2,18.5,31.72,NW,315,14.0,14.0,19,0.00,,,0.00,meteohub,2013-05-27 16:44:00,
2013-05-27 10:50:00,61.5,18.9,31.72,West,270,10.0,15.0,19,0.00,,,0.00,meteohub,2013-05-27 16:50:00,
2013-05-27 10:55:00,61.3,18.7,31.72,NE,45,7.0,15.0,19,0.00,,,0.00,meteohub,2013-05-27 16:55:00,
2013-05-27 11:01:00,62.1,19.2,31.71,SW,225,5.0,12.0,19,0.00,,,0.00,meteohub,2013-05-27 17:01:00,
2013-05-27 11:06:00,62.2,20.7,31.72,West,270,6.0,12.0,20,0.00,,,0.00,meteohub,2013-05-27 17:06:00,
2013-05-27 11:11:00,62.6,18.5,31.71,SE,135,4.0,12.0,18,0.00,,,0.00,meteohub,2013-05-27 17:11:00,
2013-05-27 11:17:00,63.0,18.9,31.71,West,270,8.0,12.0,18,0.00,,,0.00,meteohub,2013-05-27 17:17:00,
2013-05-27 11:22:00,63.0,18.9,31.71,NNW,338,4.0,12.0,18,0.00,,,0.00,meteohub,2013-05-27 17:22:00,
2013-05-27 11:27:00,63.7,19.4,31.71,NW,315,7.0,11.0,18,0.00,,,0.00,meteohub,2013-05-27 17:27:00,
2013-05-27 11:32:00,63.1,18.9,31.72,SW,225,9.0,11.0,18,0.00,,,0.00,meteohub,2013-05-27 17:32:00,
2013-05-27 11:37:00,62.4,19.6,31.72,South,180,10.0,14.0,19,0.00,,,0.00,meteohub,2013-05-27 17:37:00,
2013-05-27 11:42:00,63.0,18.9,31.71,West,270,5.0,17.0,18,0.00,,,0.00,meteohub,2013-05-27 17:42:00,
2013-05-27 11:47:00,63.1,18.9,31.71,SW,225,4.0,17.0,18,0.00,,,0.00,meteohub,2013-05-27 17:47:00,
2013-05-27 11:52:00,63.0,18.9,31.72,SE,135,3.0,10.0,18,0.00,,,0.00,meteohub,2013-05-27 17:52:00,
2013-05-27 11:57:00,63.3,19.0,31.71,South,180,10.0,10.0,18,0.00,,,0.00,meteohub,2013-05-27 17:57:00,
2013-05-27 12:02:00,63.3,19.0,31.71,NW,315,2.0,10.0,18,0.00,,,0.00,meteohub,2013-05-27 18:02:00,
2013-05-27 12:07:00,63.3,19.0,31.71,NW,315,2.0,10.0,18,0.00,,,0.00,meteohub,2013-05-27 18:07:00,
2013-05-27 12:12:00,64.4,18.7,31.71,WNW,293,17.0,17.0,17,0.00,,,0.00,meteohub,2013-05-27 18:12:00,
2013-05-27 12:17:00,64.2,19.8,31.71,NW,315,12.0,17.0,18,0.00,,,0.00,meteohub,2013-05-27 18:17:00,
2013-05-27 12:22:00,63.5,19.2,31.71,West,270,5.0,17.0,18,0.00,,,0.00,meteohub,2013-05-27 18:22:00,
2013-05-27 12:27:00,63.3,19.0,31.71,West,270,9.0,17.0,18,0.00,,,0.00,meteohub,2013-05-27 18:27:00,
2013-05-27 12:32:00,63.3,19.0,31.71,West,270,9.0,16.0,18,0.00,,,0.00,meteohub,2013-05-27 18:32:00,
2013-05-27 12:37:00,63.7,19.4,31.71,West,270,11.0,16.0,18,0.00,,,0.00,meteohub,2013-05-27 18:37:00,
2013-05-27 12:42:00,64.2,19.8,31.71,SE,135,3.0,16.0,18,0.00,,,0.00,meteohub,2013-05-27 18:42:00,
2013-05-27 12:48:00,64.2,19.8,31.71,North,0,18.0,18.0,18,0.00,,,0.00,meteohub,2013-05-27 18:48:00,
2013-05-27 12:53:00,64.4,18.7,31.70,NW,315,8.0,18.0,17,0.00,,,0.00,meteohub,2013-05-27 18:53:00,
2013-05-27 12:59:00,64.0,19.6,31.70,SW,225,8.0,18.0,18,0.00,,,0.00,meteohub,2013-05-27 18:59:00,
2013-05-27 13:05:00,64.6,18.9,31.70,West,270,12.0,18.0,17,0.00,,,0.00,meteohub,2013-05-27 19:05:00,
2013-05-27 13:10:00,64.9,19.0,31.70,West,270,8.0,15.0,17,0.00,,,0.00,meteohub,2013-05-27 19:10:00,
2013-05-27 13:15:00,65.3,19.4,31.70,NW,315,15.0,15.0,17,0.00,,,0.00,meteohub,2013-05-27 19:15:00,
2013-05-27 13:21:00,64.8,18.9,31.70,North,0,11.0,18.0,17,0.00,,,0.00,meteohub,2013-05-27 19:21:00,
2013-05-27 13:26:00,63.5,19.2,31.70,West,270,7.0,18.0,18,0.00,,,0.00,meteohub,2013-05-27 19:26:00,
2013-05-27 13:32:00,63.9,19.6,31.70,West,270,10.0,15.0,18,0.00,,,0.00,meteohub,2013-05-27 19:32:00,
2013-05-27 13:37:00,63.9,19.6,31.70,West,270,12.0,17.0,18,0.00,,,0.00,meteohub,2013-05-27 19:37:00,
2013-05-27 13:42:00,63.9,19.6,31.70,NW,315,9.0,17.0,18,0.00,,,0.00,meteohub,2013-05-27 19:42:00,
2013-05-27 13:47:00,64.4,18.7,31.70,NW,315,11.0,17.0,17,0.00,,,0.00,meteohub,2013-05-27 19:47:00,
2013-05-27 13:52:00,64.0,19.6,31.70,SW,225,12.0,15.0,18,0.00,,,0.00,meteohub,2013-05-27 19:52:00,
2013-05-27 13:58:00,64.6,18.9,31.70,West,270,2.0,15.0,17,0.00,,,0.00,meteohub,2013-05-27 19:58:00,
2013-05-27 14:03:00,65.1,19.2,31.70,WSW,248,12.0,15.0,17,0.00,,,0.00,meteohub,2013-05-27 20:03:00,
2013-05-27 14:08:00,64.6,18.9,31.70,NW,315,11.0,12.0,17,0.00,,,0.00,meteohub,2013-05-27 20:08:00,
2013-05-27 14:14:00,64.6,18.9,31.70,West,270,8.0,14.0,17,0.00,,,0.00,meteohub,2013-05-27 20:14:00,
2013-05-27 14:19:00,64.9,19.0,31.70,West,270,6.0,14.0,17,0.00,,,0.00,meteohub,2013-05-27 20:19:00,
2013-05-27 14:25:00,65.5,19.6,31.70,NW,315,12.0,16.0,17,0.00,,,0.00,meteohub,2013-05-27 20:25:00,
2013-05-27 14:30:00,65.5,19.6,31.69,SW,225,7.0,16.0,17,0.00,,,0.00,meteohub,2013-05-27 20:30:00,
2013-05-27 14:36:00,65.5,19.6,31.69,NW,315,8.0,14.0,17,0.00,,,0.00,meteohub,2013-05-27 20:36:00,
2013-05-27 14:41:00,65.5,19.6,31.69,SW,225,10.0,15.0,17,0.00,,,0.00,meteohub,2013-05-27 20:41:00,
2013-05-27 14:46:00,65.1,19.2,31.68,NE,45,9.0,15.0,17,0.00,,,0.00,meteohub,2013-05-27 20:46:00,
2013-05-27 14:52:00,64.9,19.0,31.69,SW,225,13.0,15.0,17,0.00,,,0.00,meteohub,2013-05-27 20:52:00,
2013-05-27 14:57:00,65.5,19.6,31.69,SW,225,13.0,15.0,17,0.00,,,0.00,meteohub,2013-05-27 20:57:00,
2013-05-27 15:02:00,64.9,19.0,31.68,West,270,15.0,15.0,17,0.00,,,0.00,meteohub,2013-05-27 21:02:00,
2013-05-27 15:07:00,64.8,18.9,31.69,West,270,8.0,20.0,17,0.00,,,0.00,meteohub,2013-05-27 21:07:00,
2013-05-27 15:12:00,65.1,19.2,31.68,South,180,8.0,20.0,17,0.00,,,0.00,meteohub,2013-05-27 21:12:00,
2013-05-27 15:17:00,65.5,19.6,31.68,WSW,248,8.0,20.0,17,0.00,,,0.00,meteohub,2013-05-27 21:17:00,
2013-05-27 15:22:00,65.8,19.8,31.69,North,0,9.0,14.0,17,0.00,,,0.00,meteohub,2013-05-27 21:22:00,
2013-05-27 15:27:00,65.8,19.8,31.68,SW,225,5.0,15.0,17,0.00,,,0.00,meteohub,2013-05-27 21:27:00,
2013-05-27 15:32:00,66.7,19.0,31.68,SW,225,10.0,15.0,16,0.00,,,0.00,meteohub,2013-05-27 21:32:00,
2013-05-27 15:37:00,66.4,18.9,31.68,North,0,11.0,16.0,16,0.00,,,0.00,meteohub,2013-05-27 21:37:00,
2013-05-27 15:42:00,65.8,19.8,31.68,West,270,9.0,16.0,17,0.00,,,0.00,meteohub,2013-05-27 21:42:00,
2013-05-27 15:47:00,65.5,19.6,31.69,SW,225,15.0,16.0,17,0.00,,,0.00,meteohub,2013-05-27 21:47:00,
2013-05-27 15:52:00,64.8,18.9,31.68,SW,225,10.0,15.0,17,0.00,,,0.00,meteohub,2013-05-27 21:52:00,
2013-05-27 15:57:00,65.1,19.2,31.68,NW,315,9.0,15.0,17,0.00,,,0.00,meteohub,2013-05-27 21:57:00,
2013-05-27 16:02:00,65.3,19.4,31.68,NNW,338,10.0,15.0,17,0.00,,,0.00,meteohub,2013-05-27 22:02:00,
2013-05-27 16:07:00,65.3,19.4,31.68,NNW,338,10.0,13.0,17,0.00,,,0.00,meteohub,2013-05-27 22:07:00,
2013-05-27 16:12:00,65.1,19.2,31.68,West,270,10.0,15.0,17,0.00,,,0.00,meteohub,2013-05-27 22:12:00,
2013-05-27 16:17:00,65.3,19.4,31.68,North,0,9.0,15.0,17,0.00,,,0.00,meteohub,2013-05-27 22:17:00,
2013-05-27 16:22:00,65.3,19.4,31.67,SE,135,4.0,15.0,17,0.00,,,0.00,meteohub,2013-05-27 22:22:00,
2013-05-27 16:27:00,65.5,19.6,31.68,West,270,7.0,11.0,17,0.00,,,0.00,meteohub,2013-05-27 22:27:00,
2013-05-27 16:32:00,65.3,19.4,31.67,NW,315,15.0,15.0,17,0.00,,,0.00,meteohub,2013-05-27 22:32:00,
2013-05-27 16:37:00,64.8,18.9,31.67,NW,315,8.0,15.0,17,0.00,,,0.00,meteohub,2013-05-27 22:37:00,
2013-05-27 16:42:00,64.0,19.6,31.67,NW,315,6.0,15.0,18,0.00,,,0.00,meteohub,2013-05-27 22:42:00,
2013-05-27 16:47:00,64.0,19.6,31.67,NW,315,7.0,15.0,18,0.00,,,0.00,meteohub,2013-05-27 22:47:00,
2013-05-27 16:52:00,64.0,19.6,31.67,West,270,4.0,13.0,18,0.00,,,0.00,meteohub,2013-05-27 22:52:00,
2013-05-27 16:57:00,64.6,18.9,31.67,SW,225,7.0,11.0,17,0.00,,,0.00,meteohub,2013-05-27 22:57:00,
2013-05-27 17:02:00,64.4,18.7,31.67,SW,225,6.0,16.0,17,0.00,,,0.00,meteohub,2013-05-27 23:02:00,
2013-05-27 17:07:00,63.9,19.6,31.67,South,180,8.0,16.0,18,0.00,,,0.00,meteohub,2013-05-27 23:07:00,
2013-05-27 17:12:00,63.5,19.2,31.67,East,90,8.0,16.0,18,0.00,,,0.00,meteohub,2013-05-27 23:12:00,
2013-05-27 17:17:00,63.1,18.9,31.67,West,270,8.0,16.0,18,0.00,,,0.00,meteohub,2013-05-27 23:17:00,
2013-05-27 17:22:00,63.5,19.2,31.67,West,270,12.0,12.0,18,0.00,,,0.00,meteohub,2013-05-27 23:22:00,
2013-05-27 17:27:00,63.1,18.9,31.67,West,270,8.0,12.0,18,0.00,,,0.00,meteohub,2013-05-27 23:27:00,
2013-05-27 17:32:00,62.8,18.7,31.67,NW,315,4.0,12.0,18,0.00,,,0.00,meteohub,2013-05-27 23:32:00,
2013-05-27 17:38:00,63.1,18.9,31.66,West,270,10.0,12.0,18,0.00,,,0.00,meteohub,2013-05-27 23:38:00,
2013-05-27 17:43:00,63.3,19.0,31.66,West,270,4.0,10.0,18,0.00,,,0.00,meteohub,2013-05-27 23:43:00,
2013-05-27 17:49:00,63.7,19.4,31.66,SW,225,5.0,10.0,18,0.00,,,0.00,meteohub,2013-05-27 23:49:00,
2013-05-27 17:54:00,64.0,19.6,31.66,SW,225,5.0,10.0,18,0.00,,,0.00,meteohub,2013-05-27 23:54:00,
2013-05-27 18:00:00,64.4,18.7,31.66,South,180,5.0,8.0,17,0.00,,,0.00,meteohub,2013-05-28 00:00:00,
2013-05-27 18:06:00,64.4,18.7,31.66,South,180,5.0,8.0,17,0.00,,,0.00,meteohub,2013-05-28 00:06:00,
2013-05-27 18:11:00,63.7,19.4,31.66,West,270,8.0,8.0,18,0.00,,,0.00,meteohub,2013-05-28 00:11:00,
2013-05-27 18:17:00,63.3,19.0,31.66,SW,225,8.0,8.0,18,0.00,,,0.00,meteohub,2013-05-28 00:17:00,
2013-05-27 18:22:00,63.1,18.9,31.66,West,270,7.0,8.0,18,0.00,,,0.00,meteohub,2013-05-28 00:22:00,
2013-05-27 18:27:00,63.1,18.9,31.67,NW,315,7.0,8.0,18,0.00,,,0.00,meteohub,2013-05-28 00:27:00,
2013-05-27 18:32:00,62.4,19.6,31.67,NW,315,4.0,9.0,19,0.00,,,0.00,meteohub,2013-05-28 00:32:00,
2013-05-27 18:37:00,62.4,19.6,31.66,NW,315,4.0,9.0,19,0.00,,,0.00,meteohub,2013-05-28 00:37:00,
2013-05-27 18:42:00,62.4,19.6,31.66,West,270,4.0,9.0,19,0.00,,,0.00,meteohub,2013-05-28 00:42:00,
2013-05-27 18:47:00,62.2,19.4,31.66,West,270,6.0,8.0,19,0.00,,,0.00,meteohub,2013-05-28 00:47:00,
2013-05-27 18:52:00,62.1,19.2,31.66,West,270,4.0,9.0,19,0.00,,,0.00,meteohub,2013-05-28 00:52:00,
2013-05-27 18:57:00,61.9,19.2,31.67,West,270,5.0,9.0,19,0.00,,,0.00,meteohub,2013-05-28 00:57:00,
2013-05-27 19:02:00,61.2,18.5,31.66,West,270,8.0,9.0,19,0.00,,,0.00,meteohub,2013-05-28 01:02:00,
2013-05-27 19:07:00,60.8,18.3,31.67,NW,315,8.0,8.0,19,0.00,,,0.00,meteohub,2013-05-28 01:07:00,
2013-05-27 19:12:00,60.4,19.2,31.66,NW,315,3.0,9.0,20,0.00,,,0.00,meteohub,2013-05-28 01:12:00,
2013-05-27 19:17:00,59.4,19.4,31.67,West,270,2.0,9.0,21,0.00,,,0.00,meteohub,2013-05-28 01:17:00,
2013-05-27 19:22:00,58.6,19.9,31.67,NW,315,3.0,8.0,22,0.00,,,0.00,meteohub,2013-05-28 01:22:00,
2013-05-27 19:27:00,57.9,19.2,31.67,West,270,2.0,6.0,22,0.00,,,0.00,meteohub,2013-05-28 01:27:00,
2013-05-27 19:32:00,57.6,19.0,31.67,NW,315,2.0,6.0,22,0.00,,,0.00,meteohub,2013-05-28 01:32:00,
2013-05-27 19:37:00,57.6,19.0,31.67,West,270,5.0,5.0,22,0.00,,,0.00,meteohub,2013-05-28 01:37:00,
2013-05-27 19:42:00,57.2,18.7,31.67,West,270,2.0,5.0,22,0.00,,,0.00,meteohub,2013-05-28 01:42:00,
2013-05-27 19:48:00,56.5,19.0,31.67,West,270,3.0,5.0,23,0.00,,,0.00,meteohub,2013-05-28 01:48:00,
2013-05-27 19:53:00,55.4,18.1,31.67,North,0,0.0,5.0,23,0.00,,,0.00,meteohub,2013-05-28 01:53:00,
2013-05-27 19:59:00,54.3,15.3,31.67,West,270,0.0,3.0,21,0.00,,,0.00,meteohub,2013-05-28 01:59:00,
2013-05-27 20:04:00,54.1,15.1,31.68,West,270,2.0,3.0,21,0.00,,,0.00,meteohub,2013-05-28 02:04:00,
2013-05-27 20:10:00,52.5,14.7,31.67,West,270,0.0,2.0,22,0.00,,,0.00,meteohub,2013-05-28 02:10:00,
2013-05-27 20:15:00,51.8,15.1,31.67,NW,315,2.0,2.0,23,0.00,,,0.00,meteohub,2013-05-28 02:15:00,
2013-05-27 20:20:00,51.1,15.4,31.68,SW,225,0.0,2.0,24,0.00,,,0.00,meteohub,2013-05-28 02:20:00,
2013-05-27 20:25:00,50.2,14.7,31.68,SW,225,0.0,2.0,24,0.00,,,0.00,meteohub,2013-05-28 02:25:00,
2013-05-27 20:31:00,49.6,16.2,31.68,West,270,0.0,0.0,26,0.00,,,0.00,meteohub,2013-05-28 02:31:00,
2013-05-27 20:36:00,48.9,16.3,31.68,SW,225,0.0,1.0,27,0.00,,,0.00,meteohub,2013-05-28 02:36:00,
2013-05-27 20:42:00,47.8,16.3,31.68,SW,225,0.0,1.0,28,0.00,,,0.00,meteohub,2013-05-28 02:42:00,
2013-05-27 20:47:00,47.1,15.6,31.68,SW,225,0.0,0.0,28,0.00,,,0.00,meteohub,2013-05-28 02:47:00,
2013-05-27 20:52:00,46.4,15.8,31.68,SW,225,1.0,0.0,29,0.00,,,0.00,meteohub,2013-05-28 02:52:00,
2013-05-27 20:57:00,45.9,13.8,31.68,SW,225,0.0,2.0,27,0.00,,,0.00,meteohub,2013-05-28 02:57:00,
2013-05-27 21:03:00,45.5,14.4,31.69,South,180,0.0,2.0,28,0.00,,,0.00,meteohub,2013-05-28 03:03:00,
2013-05-27 21:09:00,45.1,14.7,31.69,South,180,0.0,2.0,29,0.00,,,0.00,meteohub,2013-05-28 03:09:00,
2013-05-27 21:14:00,44.8,15.3,31.69,SW,225,0.0,0.0,30,0.00,,,0.00,meteohub,2013-05-28 03:14:00,
2013-05-27 21:19:00,44.2,16.2,31.69,West,270,0.0,0.0,32,0.00,,,0.00,meteohub,2013-05-28 03:19:00,
2013-05-27 21:25:00,43.5,16.3,31.69,SW,225,0.0,0.0,33,0.00,,,0.00,meteohub,2013-05-28 03:25:00,
2013-05-27 21:30:00,43.0,16.5,31.69,South,180,0.0,0.0,34,0.00,,,0.00,meteohub,2013-05-28 03:30:00,
2013-05-27 21:36:00,42.6,17.6,31.69,West,270,0.0,0.0,36,0.00,,,0.00,meteohub,2013-05-28 03:36:00,
2013-05-27 21:41:00,42.3,17.8,31.70,SW,225,0.0,0.0,37,0.00,,,0.00,meteohub,2013-05-28 03:41:00,
2013-05-27 21:47:00,42.1,17.6,31.70,West,270,0.0,0.0,37,0.00,,,0.00,meteohub,2013-05-28 03:47:00,
2013-05-27 21:52:00,42.4,18.0,31.70,West,270,0.0,0.0,37,0.00,,,0.00,meteohub,2013-05-28 03:52:00,
2013-05-27 21:58:00,42.4,18.0,31.70,West,270,0.0,0.0,37,0.00,,,0.00,meteohub,2013-05-28 03:58:00,
2013-05-27 22:01:00,42.4,18.7,31.70,SW,225,0.0,0.0,38,0.00,,,0.00,meteohub,2013-05-28 04:01:00,
2013-05-27 22:02:00,42.4,18.7,31.70,SW,225,0.0,0.0,38,0.00,,,0.00,meteohub,2013-05-28 04:02:00,
2013-05-27 22:03:00,42.4,18.7,31.70,SW,225,0.0,0.0,38,0.00,,,0.00,meteohub,2013-05-28 04:03:00,
2013-05-27 22:05:00,42.4,18.7,31.70,SW,225,0.0,0.0,38,0.00,,,0.00,meteohub,2013-05-28 04:05:00,
2013-05-27 22:07:00,42.4,18.7,31.70,SW,225,0.0,0.0,38,0.00,,,0.00,meteohub,2013-05-28 04:07:00,
2013-05-27 22:12:00,41.5,18.5,31.70,SW,225,0.0,0.0,39,0.00,,,0.00,meteohub,2013-05-28 04:12:00,
2013-05-27 22:17:00,41.2,18.1,31.70,SW,225,0.0,0.0,39,0.00,,,0.00,meteohub,2013-05-28 04:17:00,
2013-05-27 22:22:00,40.8,18.9,31.70,SW,225,0.0,0.0,41,0.00,,,0.00,meteohub,2013-05-28 04:22:00,
2013-05-27 22:27:00,40.5,20.3,31.70,South,180,0.0,0.0,44,0.00,,,0.00,meteohub,2013-05-28 04:27:00,
2013-05-27 22:32:00,40.1,19.4,31.70,South,180,0.0,0.0,43,0.00,,,0.00,meteohub,2013-05-28 04:32:00,
2013-05-27 22:37:00,40.3,19.6,31.70,South,180,0.0,0.0,43,0.00,,,0.00,meteohub,2013-05-28 04:37:00,
2013-05-27 22:42:00,40.5,20.3,31.70,SW,225,0.0,0.0,44,0.00,,,0.00,meteohub,2013-05-28 04:42:00,
2013-05-27 22:48:00,40.3,20.1,31.69,SW,225,0.0,0.0,44,0.00,,,0.00,meteohub,2013-05-28 04:48:00,
2013-05-27 22:54:00,39.9,20.3,31.70,SW,225,0.0,0.0,45,0.00,,,0.00,meteohub,2013-05-28 04:54:00,
2013-05-27 22:59:00,39.7,20.1,31.69,SW,225,0.0,0.0,45,0.00,,,0.00,meteohub,2013-05-28 04:59:00,
2013-05-27 23:05:00,39.6,19.9,31.70,SW,225,0.0,0.0,45,0.00,,,0.00,meteohub,2013-05-28 05:05:00,
2013-05-27 23:10:00,39.4,20.3,31.69,West,270,0.0,0.0,46,0.00,,,0.00,meteohub,2013-05-28 05:10:00,
2013-05-27 23:16:00,39.0,20.5,31.70,West,270,0.0,0.0,47,0.00,,,0.00,meteohub,2013-05-28 05:16:00,
2013-05-27 23:22:00,38.5,20.5,31.70,NW,315,0.0,0.0,48,0.00,,,0.00,meteohub,2013-05-28 05:22:00,
2013-05-27 23:27:00,38.1,20.1,31.69,SW,225,0.0,0.0,48,0.00,,,0.00,meteohub,2013-05-28 05:27:00,
2013-05-27 23:32:00,37.8,20.3,31.69,SW,225,0.0,0.0,49,0.00,,,0.00,meteohub,2013-05-28 05:32:00,
2013-05-27 23:37:00,37.4,20.5,31.69,West,270,0.0,0.0,50,0.00,,,0.00,meteohub,2013-05-28 05:37:00,
2013-05-27 23:42:00,37.0,18.1,31.70,SW,225,0.0,0.0,46,0.00,,,0.00,meteohub,2013-05-28 05:42:00,
2013-05-27 23:47:00,36.9,18.5,31.70,SW,225,0.0,0.0,47,0.00,,,0.00,meteohub,2013-05-28 05:47:00,
2013-05-27 23:52:00,36.5,18.7,31.70,West,270,0.0,0.0,48,0.00,,,0.00,meteohub,2013-05-28 05:52:00,
2013-05-27 23:58:00,36.7,19.4,31.70,SW,225,0.0,0.0,49,0.00,,,0.00,meteohub,2013-05-28 05:58:00,